Regional Weather Roundup
Issued by NWS

Home | Current Version | Previous Version | Text Only | Print | Product List | Glossary Off
Versions: 1 2 3 4 5 6 7 8 9 10 11 12 13 14 15 16 17 18 19 20 21 22 23 24 25 26 27 28 29 30 31 32 33 34 35 36 37 38 39 40 41 42 43 44 45 46 47 48 49 50

000
ASUS43 KLOT 240212
RWRIL

ILLINOIS REGIONAL WEATHER ROUNDUP
NATIONAL WEATHER SERVICE CHICAGO/ROMEOVILLE IL
800 PM CST THU FEB 23 2017

NOTE: "FAIR" INDICATES FEW OR NO CLOUDS BELOW 12,000 FEET WITH NO
SIGNIFICANT WEATHER AND/OR OBSTRUCTIONS TO VISIBILITY.

* THESE STATIONS ARE NOT UNDER NWS QUALITY CONTROL. THEY ALSO MAY NOT
  REPORT WEATHER SUCH AS PRECIPITATION OR FOG.

ILZ001-002-007-009-015-016-024-240300-
NORTHWEST ILLINOIS

CITY           SKY/WX    TMP DP  RH WIND       PRES   REMARKS
MOLINE         CLOUDY    45  39  79 E21G29    29.64F
STERLING*      LGT RAIN  39  36  89 E20       29.70  WCI  29
SAVANNA*       CLOUDY    38  35  89 NE15      29.70F WCI  30
$$

ILZ003-004-008-010-011-017-018-240300-
NORTH CENTRAL ILLINOIS

CITY           SKY/WX    TMP DP  RH WIND       PRES   REMARKS
ROCKFORD       LGT RAIN  37  33  85 NE15G25   29.76F WCI  28
FREEPORT*      CLOUDY    36  34  94 NE17      29.75F WCI  25
ROCHELLE*      LGT RAIN  37  35  93 NE21      29.72R WCI  26
DE KALB*       CLOUDY    36  34  94 NE18      29.72F WCI  26
PERU*          CLOUDY    38  36  91 E21       29.70R WCI  28
$$

ILZ005-006-012>014-019>023-240300-
NORTHEAST ILLINOIS

CITY           SKY/WX    TMP DP  RH WIND       PRES   REMARKS
CHICAGO-OHARE  RAIN      39  35  86 NE14      29.75F WCI  31
CHICAGO-MIDWAY RAIN      39  35  86 NE13      29.75F FOG     WCI  31
AURORA         TSTM      38  35  89 NE13G22   29.71F WCI  30
LANSING*       CLOUDY    38  38 100 NE9G16    29.75S WCI  31
JOLIET*        CLOUDY    39  38  95 NE13      29.71F WCI  32
WAUKEGAN       LGT RAIN  36  34  92 NE16G24   29.76F FOG     WCI  26
DUPAGE AIRPORT RAIN      37  33  85 NE14      29.72F WCI  28
KANKAKEE*      CLOUDY    40  38  93 NE10      29.73R
WHEELING       LGT RAIN  37  34  89 NE12G20   29.78F WCI  29
MORRIS*        CLOUDY    38  37  92 E14G21    29.70S WCI  30
ROMEOVILLE*    CLOUDY    37  37 100 E16G22    29.71F WCI  28
NORTHERLY ISL    N/A     37  35  92 N12         N/A  WCI  29
$$

LMZ740>746-240300-
SOUTHERN LAKE MICHIGAN

STATION/POSITION SKY/WX   TEMP    WIND        PRES    VSBY  WAVE
                          AIR SEA DIR/SP/G                  HT/PER
                          (F)     (DEG/KT/KT) (MB)    (MI)  (FT/S)
HARRISON CRIB              38      10/ 11/ 13   N/A
BURNHAM HARBOR             37     360/ 13/ 16   N/A
CALUMET HARBOR             37     350/  9/ 12 1007.3F
BURNS HARBOR               37      60/ 12/ 19 1008.8
MICHIGAN CITY              36      30/ 15/ 16   N/A
$$

ILZ025>027-034>036-040-047-049-050-058-095>099-240300-
WEST-CENTRAL ILLINOIS

CITY           SKY/WX    TMP DP  RH WIND       PRES   REMARKS
QUINCY         MOCLDY    56  52  86 E15       29.49F
GALESBURG*     CLOUDY    46  43  91 E14G20    29.59F
MACOMB*        CLOUDY    51  49  93 NE12      29.61S
JACKSONVILLE*  CLOUDY    58  55  87 E12       29.56F
PITTSFIELD*    PTCLDY    60  56  87 E13       29.52F
$$

ILZ028>032-037-038-041>044-048-051>054-059>061-240300-
CENTRAL ILLINOIS

CITY           SKY/WX    TMP DP  RH WIND       PRES   REMARKS
PONTIAC        CLOUDY    41  41  99 E20       29.68F
BLOOMINGTON    MOCLDY    45  42  89 E14       29.65F
DECATUR        MOCLDY    53  50  89 E7        29.63F
PEORIA         PTCLDY    46  43  89 E16       29.61F
LACON*         CLOUDY    41  40  95 E15G24    29.68R
LINCOLN*       MOCLDY    51  47  88 E12G17    29.61F
SPRINGFIELD    MOCLDY    58  54  86 E8        29.60F
TAYLORVILLE    CLOUDY    60  53  78 E8        29.61S
$$

ILZ033-039-045-046-055>057-062-063-240300-
EAST-CENTRAL ILLINOIS

CITY           SKY/WX    TMP DP  RH WIND       PRES   REMARKS
CHAMPAIGN      MOCLDY    54  49  83 NE13      29.66S
RANTOUL*       MOCLDY    50  46  85 NE13      29.66F
MATTOON        PTCLDY    60  54  80 SE9       29.62F
PARIS*         MOCLDY    60  55  82 E5        29.67F
$$

ILZ079-100>102-240300-
SOUTHWEST ILLINOIS

CITY           SKY/WX    TMP DP  RH WIND       PRES   REMARKS
ALTON          MOCLDY    63  54  72 E10       29.57F
BELLEVILLE     MOCLDY    63  57  79 E6        29.55S
CAHOKIA*       PTCLDY    65  53  65 SE9       29.54F
SPARTA*        CLOUDY    65  54  67 S12G20    29.57F
$$

ILZ064>066-069>071-074>076-080>082-084>086-088>090-092>094-240300-
SOUTH-CENTRAL ILLINOIS

CITY           SKY/WX    TMP DP  RH WIND       PRES   REMARKS
CARBONDALE     PTCLDY    67  55  65 SE13      29.57F
CAIRO*         PTCLDY    65  56  74 SE12      29.62F
EFFINGHAM*     PTCLDY    62  56  79 E10       29.63F
MARION         CLOUDY    68  55  64 SE9       29.62S
MT. VERNON     PTCLDY    64  53  67 S7        29.61F
CENTRALIA*     MOCLDY    66  56  68 SE14G20   29.58F
SALEM*         CLOUDY    66  53  62 SE8       29.60S
METROPOLIS*    PTCLDY    65  55  70 CALM      29.64F
$$

ILZ067-068-072-073-078-083-087-091-240300-
SOUTHEAST ILLINOIS

CITY           SKY/WX    TMP DP  RH WIND       PRES   REMARKS
LAWRENCEVILLE  MOCLDY    61  55  81 SE13      29.65F
FLORA*         MOCLDY    64  55  74 SE10      29.63F
FAIRFIELD*     CLOUDY    63  55  75 SE6       29.61F
HARRISBURG*    CLOUDY    63  56  79 SE8       29.64S
ROBINSON*      CLOUDY    61  54  77 SE9       29.67F
CARMI*         CLOUDY    60  55  82 SE12      29.64F
$$

ABBREVIATIONS USED IN REMARKS
   TC - TEMPERATURE IN CELSIUS
  WCI - WIND CHILL INDEX
   HX - HEAT INDEX
  VSB - VISIBILITY
$$





USA.gov is the U.S. government's official web portal to all federal, state and local government web resources and services.